SCP
1 1 2 2 3 3 3 3 3 2 2 2 3 3 3 2 1 1 1 0 0 0 0 0 0 0 0 0 0 0 0 0 0 1 1 1 1 1
1 1 1 2 2 2 2 3 3 2 2 2 2 3 3 3 2 2 1 0 0 0 0 0 0 0 0 0 0 0 0 0 0 0 1 1 1 1
1 1 1 1 1 1 2 2 3 3 2 2 2 3 3 3 2 2 1 1 0 0 0 0 0 0 0 0 0 0 0 0 0 0 0 0 1 1
1 1 1 1 1 1 1 2 2 3 2 2 2 3 3 2 2 1 1 1 0 0 0 0 0 0 0 0 0 0 0 0 0 0 0 0 0 0
1 1 1 1 1 1 1 1 2 2 2 2 2 2 3 2 2 1 1 1 0 0 0 0 0 0 0 0 0 0 0 0 0 0 0 0 0 0
1 1 1 1 1 1 1 1 1 2 2 1 2 2 2 2 2 1 1 1 1 0 0 0 0 0 0 0 0 0 0 0 0 0 0 0 0 0
1 1 1 1 1 1 1 1 1 1 1 1 1 1 2 2 2 1 1 1 1 1 0 0 0 0 0 0 0 0 0 0 0 0 0 0 0 0
1 1 1 1 1 0 0 0 1 1 1 1 1 1 1 2 2 1 1 1 1 1 0 0 0 0 0 0 0 0 0 0 0 0 0 0 0 0
1 1 1 0 0 0 0 0 0 0 0 0 1 1 1 1 1 1 1 1 1 1 0 0 0 0 0 0 0 0 0 0 0 0 0 0 0 0
1 1 1 0 0 0 0 0 0 0 0 0 0 1 1 1 1 1 1 1 1 1 0 0 0 0 0 0 0 0 0 0 0 0 0 0 0 0
1 1 1 0 0 0 0 0 0 0 0 0 0 0 0 0 1 1 1 1 1 0 0 0 0 0 0 0 0 0 0 0 0 0 0 0 0 0
1 1 1 0 0 0 0 0 0 0 0 0 0 0 0 0 0 1 1 1 0 0 0 0 0 0 0 0 0 0 0 0 0 0 0 0 0 0
1 1 1 0 0 0 0 0 0 0 0 0 0 0 0 0 0 1 1 0 0 0 0 0 0 0 0 0 0 0 0 0 0 0 0 0 0 0
1 1 0 0 0 0 0 0 0 0 0 0 0 0 0 1 1 1 1 0 0 0 0 0 0 0 0 0 0 0 0 0 0 0 0 0 0 0
0 0 0 0 0 0 0 0 0 0 0 0 0 0 0 1 1 1 1 1 0 0 0 0 0 0 0 0 0 0 0 0 0 0 0 0 0 0
0 0 0 0 0 0 0 0 0 0 0 0 0 0 0 1 1 1 1 1 0 0 0 0 0 0 0 0 0 0 0 0 0 0 0 0 0 0
0 0 0 0 0 0 0 0 0 0 0 0 0 1 1 1 1 1 1 0 0 0 0 0 0 0 0 0 0 0 0 0 0 0 0 0 0 0
0 0 0 0 0 0 0 0 0 0 0 0 1 1 1 1 1 1 0 0 0 0 0 0 0 0 0 0 0 0 0 0 0 0 0 0 0 0
0 0 0 0 0 0 0 0 0 0 0 0 0 0 0 0 0 0 0 0 0 0 0 0 0 0 0 0 0 0 0 0 0 0 0 0 0 0
0 0 0 0 0 0 0 0 0 0 0 0 0 0 0 0 0 0 0 0 0 0 0 0 0 0 0 0 0 0 0 0 0 0 0 0 0 0
0 0 0 0 0 0 0 0 0 1 1 1 1 1 1 1 0 0 0 0 0 0 0 0 0 0 0 0 0 0 0 0 0 0 0 0 0 0
0 0 0 0 0 0 0 0 1 1 1 1 1 1 1 1 0 0 0 0 0 0 0 0 0 0 0 0 0 0 0 0 0 0 0 0 0 0
0 0 0 0 0 0 0 0 0 1 1 1 1 1 1 0 0 0 0 0 0 0 0 0 0 0 0 0 0 0 0 0 0 0 0 0 0 0
Wind_Speed
3 4 4 2 2 3 3 2 2 2 3 3 3 4 5 7 8 6 6 6 5 4 2 1 1 3 5 7 8 9 10 11 12 13 14 15 16 16
4 4 4 3 2 2 3 2 2 2 2 3 3 4 5 7 7 6 7 10 7 5 4 3 2 1 2 3 5 6 7 8 10 10 11 12 12 13
6 6 6 5 3 2 2 2 2 1 2 2 1 4 5 6 5 6 7 6 5 7 6 6 5 4 2 1 2 3 4 5 6 7 8 9 10 11
7 7 6 5 6 4 3 3 2 1 2 3 2 3 5 6 6 6 5 6 6 8 8 8 8 7 6 4 3 3 3 3 3 4 5 6 7 8
8 8 7 7 6 5 5 4 3 3 2 3 3 2 3 5 6 5 5 5 7 8 9 9 9 10 9 9 7 6 6 5 4 4 3 3 2 3
8 8 7 7 7 6 6 5 4 4 3 4 4 3 3 5 5 6 5 4 4 6 6 7 9 11 11 11 10 9 8 7 7 6 6 5 4 4
9 8 9 9 10 8 6 6 6 5 4 4 5 4 4 5 6 5 6 5 4 5 5 4 4 5 6 8 10 10 10 9 9 9 8 8 7 7
9 9 9 9 11 12 11 8 8 7 6 5 5 5 6 5 5 6 6 7 4 4 5 4 4 5 5 5 8 11 11 11 11 11 11 11 11 10
8 7 10 11 12 10 11 12 10 10 9 6 6 6 5 6 6 7 7 7 5 6 6 5 4 6 5 6 10 11 11 12 13 13 13 13 13 13
8 8 9 8 7 8 10 10 9 9 10 8 5 5 5 5 6 6 6 5 6 5 5 5 4 5 6 5 8 10 11 12 13 14 15 15 15 15
9 9 9 9 10 9 8 7 7 7 10 12 10 8 8 7 6 6 7 8 6 4 3 5 5 5 5 4 5 9 10 10 12 13 13 14 14 13
7 7 10 10 11 12 7 7 7 6 6 7 8 8 8 8 10 9 9 9 7 5 4 5 7 6 5 3 4 4 5 7 9 9 9 8 7 7
6 6 6 11 12 13 10 6 6 4 4 5 5 6 6 7 8 8 7 8 8 5 8 7 8 5 5 5 4 4 5 4 4 4 5 4 5 6
4 4 4 9 12 13 9 6 6 4 3 4 5 6 6 6 7 8 8 6 5 6 10 8 6 6 7 7 5 5 5 4 4 4 4 4 5 8
2 2 4 8 10 9 10 9 7 4 4 4 5 6 6 6 6 6 6 5 5 7 9 6 7 7 7 6 7 7 5 5 4 4 4 4 4 4
4 3 6 8 6 5 7 7 6 5 5 5 4 4 4 5 5 6 6 7 6 4 4 5 6 8 6 7 8 8 6 6 6 5 4 4 4 4
6 5 4 5 5 5 6 7 7 7 6 5 4 5 5 5 6 6 7 7 6 7 6 4 4 4 6 8 9 8 6 5 6 5 5 4 4 4
4 5 5 6 7 7 7 7 7 7 6 6 5 5 6 6 6 7 7 8 8 8 7 7 6 6 5 3 6 7 6 5 5 5 5 4 4 4
3 5 5 5 6 6 5 6 6 6 5 6 6 6 6 7 7 8 8 8 8 8 7 8 8 8 9 7 4 5 6 6 6 5 4 4 5 5
5 5 5 5 5 5 5 5 5 5 5 6 5 6 7 7 8 9 9 9 9 8 8 7 7 7 7 7 5 5 7 8 6 6 5 3 3 5
5 4 4 4 4 4 4 4 4 5 6 6 6 7 7 8 8 9 8 11 9 9 9 8 6 7 4 6 6 5 4 5 6 5 5 5 4 4
3 3 2 2 2 3 3 3 4 5 6 6 6 7 7 7 9 10 10 10 8 8 8 6 6 6 5 7 7 7 6 4 4 4 4 4 4 5
1 1 1 1 2 2 3 4 5 5 5 6 6 7 8 8 7 8 9 9 8 8 8 7 6 5 5 6 7 7 8 7 5 4 3 6 8 8
Wind_Direction
239 238 241 251 274 296 287 270 239 227 217 191 164 151 130 119 147 137 128 134 132 132 135 168 209 218 218 218 219 220 220 220 218 218 219 220 222 223
221 233 238 233 235 267 287 276 256 229 231 207 191 149 139 136 148 126 123 125 108 102 87 72 67 95 188 203 208 213 217 216 214 213 215 217 219 221
218 216 221 220 222 227 250 270 277 253 238 245 166 133 124 124 134 129 139 128 106 92 86 75 69 69 81 122 176 193 198 200 202 205 211 218 222 223
218 216 214 215 213 219 218 231 241 235 217 229 200 162 143 140 146 145 139 124 112 102 93 83 76 72 70 78 96 116 136 152 167 182 197 208 216 220
218 217 213 209 212 210 208 214 217 223 204 204 216 195 161 151 146 139 124 123 123 121 102 86 79 76 72 73 78 84 90 98 105 115 124 139 158 179
218 218 216 210 208 206 211 208 206 208 214 211 205 193 179 162 156 149 142 138 132 123 98 97 92 80 73 71 75 79 84 89 92 94 95 96 98 100
222 218 219 215 210 201 208 201 197 199 207 214 209 196 186 174 177 168 157 143 123 129 124 117 108 87 72 66 70 77 84 87 91 94 94 95 95 93
227 220 222 220 210 201 205 202 196 200 203 209 214 206 196 188 184 170 158 155 152 158 133 114 104 90 74 64 72 81 86 89 91 92 93 92 91 90
234 220 225 222 201 195 202 205 208 215 210 206 211 213 202 192 184 179 174 174 154 153 131 111 98 88 78 73 80 85 89 92 94 93 91 89 87 86
236 223 218 232 223 200 199 202 205 210 208 212 220 217 215 197 188 184 173 144 120 138 133 122 121 106 95 84 81 89 93 96 98 98 96 94 90 84
233 226 215 214 218 201 199 202 206 213 213 212 209 208 197 185 176 162 162 154 145 151 145 125 134 121 106 98 93 93 96 101 104 105 106 106 104 94
230 228 220 213 206 196 199 202 209 214 219 209 204 206 199 190 186 184 177 167 151 153 168 139 150 144 125 122 129 129 108 101 107 111 115 118 118 107
228 219 214 202 199 197 200 203 207 211 214 209 197 197 198 192 190 190 189 177 167 158 165 153 161 157 134 139 149 158 148 147 138 124 117 115 127 128
229 220 200 186 192 192 194 188 172 181 215 209 200 196 197 194 190 186 187 184 175 160 165 163 157 163 143 144 148 160 161 163 159 148 141 130 117 127
234 184 174 173 179 191 203 184 173 196 216 219 213 201 196 189 176 169 162 149 133 146 161 168 152 152 151 147 146 154 157 166 164 153 152 152 146 139
218 182 168 166 184 197 183 188 201 213 213 217 219 197 180 172 167 158 152 142 129 127 150 165 157 155 150 144 145 152 158 158 162 158 154 157 159 157
183 175 179 176 195 205 197 191 199 206 215 216 204 188 179 170 164 157 152 150 149 154 158 164 159 145 142 145 149 155 155 147 153 155 154 158 164 158
175 192 197 199 205 208 208 200 199 203 202 198 193 184 179 172 163 159 159 161 159 157 160 162 154 137 130 122 150 154 152 148 149 157 163 158 162 160
198 207 207 212 219 220 213 206 202 199 191 185 184 181 174 169 166 164 165 163 159 158 161 161 161 157 157 155 163 166 152 148 151 167 183 172 164 161
225 222 215 216 221 220 215 207 200 189 181 177 179 177 169 168 169 167 167 162 157 155 157 164 167 166 164 156 146 158 163 153 158 173 183 163 131 139
219 226 224 220 215 213 209 199 190 179 173 171 175 175 168 166 167 164 160 159 156 159 163 167 169 165 146 131 136 142 148 155 163 172 171 154 148 153
231 213 210 211 210 204 191 188 182 174 172 172 172 170 164 164 165 160 158 158 161 158 155 153 156 161 157 154 155 152 147 143 133 128 141 150 164 179
241 207 179 198 204 194 192 188 179 172 169 163 160 161 159 159 158 155 156 158 160 157 153 155 159 167 173 167 158 155 154 157 160 160 164 151 133 125